sat.trackr.live / text

‹ back to catalog

YAOGAN-39 02A

NORAD 57886 · 2023-145A

PAYLOAD ACTIVE UNKNOWN

§ Identity

Operator
Country
PRC
Launch date
2023-09-17
Launch site
XICLF
Launch vehicle
Mass (kg)
RCS (m²)

External: N2YO · Heavens-Above · Gunter

§ Orbital elements

Epoch: 2026-05-24T16:00:39.232800Z

Period
94.54 min
Inclination
35.0034°
Eccentricity
0.0001744
Mean motion
15.23194640 rev/d
Perigee alt
495.0 km
Apogee alt
497.4 km
Semi-major
6,874.3 km
B*
3.7289e-4
RAAN
348.3724°
Arg perigee
94.8423°
Mean anomaly
265.2491°
Rev number
14,958

§ Raw data

YAOGAN-39 02A1 57886U 23145A   26144.66712075  .00009009  00000+0  37289-3 0  99992 57886  35.0034 348.3724 0001744  94.8423 265.2491 15.23194640149589

JSON: /api/v1/satellites/57886 · /tle

For live sub-satellite position, see the globe view (requires WebGL).

§ Visibility from observer

Set your observer location to see the next 7 days of passes ≥ 10°. The values pass through the URL so the page stays shareable.

No JS? Fill the form by hand. The geolocation button needs JavaScript.